Location: San Antonio de Areco
(34.2500°S, 59.4670°W)
Time: 02:37:05
(UTC-03:00)

ISS - Visible Passes

Search period start: 02 July 2016 00:00
Search period end: 12 July 2016 00:00
Orbit: 402 x 404 km, 51.6° (Epoch: 02 July)

Date Brightness Start Highest point End Pass type
(mag) Time Alt. Az. Time Alt. Az. Time Alt. Az.
02 Jul -2.8 19:15:06 10° WNW 19:18:21 55° SW 19:19:47 29° SSE visible
03 Jul -3.2 18:22:18 10° NW 18:25:34 66° NE 18:28:53 10° SE visible
03 Jul -0.6 20:00:25 10° WSW 20:02:00 14° SW 20:02:00 14° SW visible
04 Jul -1.4 19:06:35 10° W 19:09:19 23° SW 19:11:31 13° SSE visible
06 Jul -0.7 18:58:52 10° SW 19:00:24 13° SSW 19:01:56 10° S visible
